User: anonymous   Login
Location: Unspecified
(0.0000°N, 0.0000°E)
Time: 11:09:21
(UTC+01:00)
Language:

Meteor 1-31 Rocket - Orbit

View from above orbital plane
View from above orbital plane
View from above satellite
View from above satellite

Ground track
Ground track

The orbit data is extracted from the following two-line orbital elements,

1 12586U 81065B   15030.86375191  .00003568  00000-0  23831-3 0  5764
2 12586 097.4164 026.1490 0018859 304.9802 054.9655 15.07486998825549
Epoch (UTC): 30 January 2015 20:43:48
Eccentricity: 0.0018859
inclination: 97.4164°
perigee height: 531 km
apogee height: 557 km
right ascension of ascending node: 26.1490°
argument of perigee: 304.9802°
revolutions per day: 15.07486998
mean anomaly at epoch: 54.9655°
orbit number at epoch: 82554

The dashed part of the orbit path shows where the satellite is in the earth's shadow,  

DLR